星链-34216 (STARLINK-34216)

导读

STARLINK-34216是美国于2025年6月10日发射的星链系列卫星,属于SpaceX公司星链星座计划的组成部分。星链项目旨在构建全球卫星互联网星座,为全球偏远地区等提供高速宽带接入服务,该卫星发射后将进入预定轨道,助力星链星座组网,进一步拓展星链网络覆盖能力与服务范围。

Basic Information
目录编号:
64337
目录名称:
STARLINK-34216
国际标识:
2025-124W
轨道中心:
EARTH
卫星名称:
星链-34216
卫星全名:
星链-34216 (STARLINK-34216)
卫星状态:
在轨 (已飞行452 天)
发射日期:
2025-06-10 UTC
国别 :
美国 (US)
星等 :
--
Orbit Information
数据来源 国际轨道数据 AOE轨道数据
星历时间 2026-09-05T12:04:40+0800
9小时前
查看轨道信息
2026-09-03T23:00:00+0800
1天前
查看轨道信息
半长轴 6861.159km 6861.182km
偏心率 0.0001477 0.0002005
轨道倾角 43.001° 43.003°
近地点辐角 271.487° 292.307°
升交点赤经 187.750° 196.481°
平近点角 88.581° 201.858°
近地点 482.008km 481.669km
远地点 484.036km 484.421km
周期 94.266分钟 94.267分钟
每日圈数 15.275893 15.275815
Detailed Information
固有亮度:
5
最大亮度:
2.5
卫星平台:
Starlink V1.0
覆盖范围:
全球
运营商:
太空探索技术公司
运营商所在国:
美国
制造商(研发单位):
太空探索技术公司
制造商所在国:
美国
使用方式:
暂无
Satellite Introduction
Starlink 计划是 SpaceX 推出的全球卫星互联网项目,通过发射低轨道卫星,为全球尤其是偏远地区提供高速、低延迟的互联网服务。自 2019 年起,Starlink 已部署数千颗卫星,旨在缩小全球数字鸿沟,推动互联网普及。该项目还为军事、航空等行业提供通信支持,带来广泛经济效益。
2D Orbit Map
3D Orbit Map
Orbit Altitude Analysis Chart
Orbit Inclination Analysis Chart
Orbit Comprehensive Analysis Chart
View Comprehensive Chart
Conjunction Data List
Event ID Objects TCA Miss Dist (km) Collision Risk Probability Collision Risk Index (CRI) Action
CDM_260907-085105-904606-433721
2026-09-07T
08:51:51+0000
0.578 km
远距离
9.689494E-5 中风险 0.75
CDM_260907-102605-904606-433721
2026-09-07T
10:26:00+0000
1.217 km
极远距离
8.773292E-6 低风险 0.54
CDM_260905-171504-097506-433722
2026-09-05T
17:15:31+0000
2.113 km
极远距离
2.153457E-6 低风险 0.42
CDM_260907-071705-904606-433721
2026-09-07T
07:17:42+0000
2.152 km
极远距离
1.619715E-6 低风险 0.39
CDM_260905-125005-696406-433722
AFR-1 (56964)
2026-09-05T
12:50:49+0000
2.811 km
极远距离
1.419787E-6 低风险 0.38
CDM_260907-120005-904606-433721
2026-09-07T
12:00:09+0000
2.895 km
极远距离
9.746354E-7 极低风险 0.35